Time,TemperatureF,DewpointF,PressureIn,WindDirection,WindDirectionDegrees,WindSpeedMPH,WindSpeedGustMPH,Humidity,HourlyPrecipIn,Conditions,Clouds,dailyrainin,SoftwareType,DateUTC
2013-10-18 00:06:00,65.0,61.0,29.60,WSW,258,8.0,-999.0,87,-99.99,,,0.00,weatherlink.com 1.10,2013-10-18 04:06:00,
2013-10-18 00:21:00,65.0,61.0,29.59,SSW,192,5.0,-999.0,87,-99.99,,,0.00,weatherlink.com 1.10,2013-10-18 04:21:00,
2013-10-18 00:36:00,65.2,61.0,29.59,SW,220,5.0,-999.0,87,-99.99,,,0.00,weatherlink.com 1.10,2013-10-18 04:36:00,
2013-10-18 00:51:00,65.2,61.0,29.59,South,188,5.0,-999.0,87,-99.99,,,0.00,weatherlink.com 1.10,2013-10-18 04:51:00,
2013-10-18 01:06:00,65.0,61.0,29.58,SSW,210,6.0,-999.0,88,-99.99,,,0.00,weatherlink.com 1.10,2013-10-18 05:06:00,
2013-10-18 01:21:00,65.0,62.0,29.59,NW,308,5.0,-999.0,89,-99.99,,,0.00,weatherlink.com 1.10,2013-10-18 05:21:00,
2013-10-18 01:36:00,65.2,62.0,29.58,SSW,212,3.0,-999.0,89,-99.99,,,0.00,weatherlink.com 1.10,2013-10-18 05:36:00,
2013-10-18 01:51:00,65.3,62.0,29.58,SSW,206,5.0,-999.0,88,-99.99,,,0.00,weatherlink.com 1.10,2013-10-18 05:51:00,
2013-10-18 02:06:00,65.5,62.0,29.58,WSW,248,3.0,-999.0,87,-99.99,,,0.00,weatherlink.com 1.10,2013-10-18 06:06:00,
2013-10-18 02:21:00,65.6,62.0,29.58,WSW,253,3.0,-999.0,87,-99.99,,,0.00,weatherlink.com 1.10,2013-10-18 06:21:00,
2013-10-18 02:36:00,65.6,61.0,29.58,WNW,292,1.0,-999.0,84,-99.99,,,0.00,weatherlink.com 1.10,2013-10-18 06:36:00,
2013-10-18 02:51:00,66.0,60.0,29.59,WNW,284,2.0,-999.0,80,-99.99,,,0.00,weatherlink.com 1.10,2013-10-18 06:51:00,
2013-10-18 03:07:00,66.1,58.0,29.59,NW,309,1.0,-999.0,76,-99.99,,,0.00,weatherlink.com 1.10,2013-10-18 07:07:00,
2013-10-18 03:22:00,65.6,57.0,29.59,West,270,6.0,-999.0,73,-99.99,,,0.00,weatherlink.com 1.10,2013-10-18 07:22:00,
2013-10-18 03:37:00,65.0,56.0,29.59,West,264,3.0,-999.0,73,-99.99,,,0.00,weatherlink.com 1.10,2013-10-18 07:37:00,
2013-10-18 03:52:00,64.2,55.0,29.60,WSW,251,0.0,-999.0,73,-99.99,,,0.00,weatherlink.com 1.10,2013-10-18 07:52:00,
2013-10-18 04:07:00,63.5,54.0,29.61,SW,223,0.0,-999.0,70,-99.99,,,0.00,weatherlink.com 1.10,2013-10-18 08:07:00,
2013-10-18 04:22:00,62.7,52.0,29.61,WSW,258,2.0,-999.0,68,-99.99,,,0.01,weatherlink.com 1.10,2013-10-18 08:22:00,
2013-10-18 04:37:00,62.1,51.0,29.62,West,260,1.0,-999.0,68,-99.99,,,0.01,weatherlink.com 1.10,2013-10-18 08:37:00,
2013-10-18 04:52:00,61.5,51.0,29.63,WSW,251,5.0,-999.0,68,-99.99,,,0.01,weatherlink.com 1.10,2013-10-18 08:52:00,
2013-10-18 05:07:00,60.9,50.0,29.64,WNW,282,0.0,-999.0,68,-99.99,,,0.01,weatherlink.com 1.10,2013-10-18 09:07:00,
2013-10-18 05:22:00,60.4,50.0,29.64,WSW,243,2.0,-999.0,68,-99.99,,,0.01,weatherlink.com 1.10,2013-10-18 09:22:00,
2013-10-18 05:37:00,60.2,50.0,29.65,West,275,1.0,-999.0,68,-99.99,,,0.01,weatherlink.com 1.10,2013-10-18 09:37:00,
2013-10-18 05:52:00,59.8,49.0,29.65,WSW,244,1.0,-999.0,67,-99.99,,,0.01,weatherlink.com 1.10,2013-10-18 09:52:00,
2013-10-18 06:07:00,59.3,48.0,29.65,SW,233,1.0,-999.0,67,-99.99,,,0.01,weatherlink.com 1.10,2013-10-18 10:07:00,
2013-10-18 06:22:00,58.7,47.0,29.65,WNW,294,3.0,-999.0,65,-99.99,,,0.01,weatherlink.com 1.10,2013-10-18 10:22:00,
2013-10-18 06:37:00,58.4,46.0,29.66,SSW,210,2.0,-999.0,63,-99.99,,,0.01,weatherlink.com 1.10,2013-10-18 10:37:00,
2013-10-18 06:52:00,58.3,45.0,29.67,NNW,344,1.0,-999.0,61,-99.99,,,0.01,weatherlink.com 1.10,2013-10-18 10:52:00,
2013-10-18 07:07:00,58.0,44.0,29.68,WSW,253,1.0,-999.0,61,-99.99,,,0.01,weatherlink.com 1.10,2013-10-18 11:07:00,
2013-10-18 07:22:00,57.6,44.0,29.69,West,264,2.0,-999.0,61,-99.99,,,0.01,weatherlink.com 1.10,2013-10-18 11:22:00,
2013-10-18 07:37:00,57.6,44.0,29.70,ENE,65,0.0,-999.0,61,-99.99,,,0.01,weatherlink.com 1.10,2013-10-18 11:37:00,
2013-10-18 07:52:00,57.3,44.0,29.70,SSE,157,1.0,-999.0,62,-99.99,,,0.01,weatherlink.com 1.10,2013-10-18 11:52:00,
2013-10-18 08:07:00,57.6,44.0,29.71,WSW,241,0.0,-999.0,61,-99.99,,,0.01,weatherlink.com 1.10,2013-10-18 12:07:00,
2013-10-18 08:22:00,58.0,44.0,29.72,South,189,1.0,-999.0,61,-99.99,,,0.01,weatherlink.com 1.10,2013-10-18 12:22:00,
2013-10-18 08:37:00,58.9,44.0,29.73,SW,230,1.0,-999.0,59,-99.99,,,0.01,weatherlink.com 1.10,2013-10-18 12:37:00,
2013-10-18 08:52:00,59.8,44.0,29.74,WSW,250,1.0,-999.0,56,-99.99,,,0.01,weatherlink.com 1.10,2013-10-18 12:52:00,
2013-10-18 09:07:00,60.7,44.0,29.74,West,272,1.0,-999.0,54,-99.99,,,0.01,weatherlink.com 1.10,2013-10-18 13:07:00,
2013-10-18 09:22:00,62.1,44.0,29.75,West,271,2.0,-999.0,52,-99.99,,,0.01,weatherlink.com 1.10,2013-10-18 13:22:00,
2013-10-18 09:37:00,62.6,44.0,29.75,North,0,2.0,-999.0,50,-99.99,,,0.01,weatherlink.com 1.10,2013-10-18 13:37:00,
2013-10-18 09:52:00,63.1,43.0,29.75,NNW,344,1.0,-999.0,49,-99.99,,,0.01,weatherlink.com 1.10,2013-10-18 13:52:00,
2013-10-18 10:07:00,64.5,44.0,29.75,ENE,78,0.0,-999.0,48,-99.99,,,0.01,weatherlink.com 1.10,2013-10-18 14:07:00,
2013-10-18 10:22:00,65.5,44.0,29.75,WSW,257,0.0,-999.0,46,-99.99,,,0.01,weatherlink.com 1.10,2013-10-18 14:22:00,
2013-10-18 10:37:00,65.8,44.0,29.76,West,274,1.0,-999.0,45,-99.99,,,0.01,weatherlink.com 1.10,2013-10-18 14:37:00,
2013-10-18 10:52:00,66.0,44.0,29.76,NW,311,1.0,-999.0,45,-99.99,,,0.01,weatherlink.com 1.10,2013-10-18 14:52:00,
2013-10-18 11:07:00,66.8,44.0,29.76,NE,38,1.0,-999.0,44,-99.99,,,0.01,weatherlink.com 1.10,2013-10-18 15:07:00,
2013-10-18 11:22:00,67.9,43.0,29.76,WNW,291,1.0,-999.0,41,-99.99,,,0.01,weatherlink.com 1.10,2013-10-18 15:22:00,
2013-10-18 11:37:00,68.8,44.0,29.76,West,264,0.0,-999.0,41,-99.99,,,0.01,weatherlink.com 1.10,2013-10-18 15:37:00,
2013-10-18 11:52:00,68.6,43.0,29.76,North,8,2.0,-999.0,40,-99.99,,,0.01,weatherlink.com 1.10,2013-10-18 15:52:00,
2013-10-18 12:08:00,69.6,44.0,29.76,WNW,298,4.0,-999.0,40,-99.99,,,0.01,weatherlink.com 1.10,2013-10-18 16:08:00,
2013-10-18 12:23:00,68.6,43.0,29.76,West,261,1.0,-999.0,40,-99.99,,,0.01,weatherlink.com 1.10,2013-10-18 16:23:00,
2013-10-18 12:38:00,70.6,43.0,29.76,North,0,3.0,-999.0,37,-99.99,,,0.01,weatherlink.com 1.10,2013-10-18 16:38:00,
2013-10-18 12:53:00,70.9,44.0,29.75,NNE,23,5.0,-999.0,38,-99.99,,,0.01,weatherlink.com 1.10,2013-10-18 16:53:00,
2013-10-18 13:08:00,69.9,43.0,29.75,WSW,243,3.0,-999.0,38,-99.99,,,0.01,weatherlink.com 1.10,2013-10-18 17:08:00,
2013-10-18 13:23:00,70.9,44.0,29.75,WSW,258,2.0,-999.0,38,-99.99,,,0.01,weatherlink.com 1.10,2013-10-18 17:23:00,
2013-10-18 13:38:00,69.4,42.0,29.74,West,265,2.0,-999.0,37,-99.99,,,0.01,weatherlink.com 1.10,2013-10-18 17:38:00,
2013-10-18 13:53:00,69.8,42.0,29.74,WSW,250,3.0,-999.0,37,-99.99,,,0.01,weatherlink.com 1.10,2013-10-18 17:53:00,
2013-10-18 14:08:00,71.1,41.0,29.74,West,270,1.0,-999.0,34,-99.99,,,0.01,weatherlink.com 1.10,2013-10-18 18:08:00,
2013-10-18 14:23:00,70.4,41.0,29.74,West,260,7.0,-999.0,35,-99.99,,,0.01,weatherlink.com 1.10,2013-10-18 18:23:00,
2013-10-18 14:38:00,70.3,41.0,29.74,WNW,295,5.0,-999.0,35,-99.99,,,0.01,weatherlink.com 1.10,2013-10-18 18:38:00,
2013-10-18 14:53:00,72.0,41.0,29.74,WSW,254,0.0,-999.0,33,-99.99,,,0.01,weatherlink.com 1.10,2013-10-18 18:53:00,
2013-10-18 15:08:00,72.7,39.0,29.74,West,274,2.0,-999.0,30,-99.99,,,0.01,weatherlink.com 1.10,2013-10-18 19:08:00,
2013-10-18 15:23:00,72.1,41.0,29.74,South,188,2.0,-999.0,32,-99.99,,,0.01,weatherlink.com 1.10,2013-10-18 19:23:00,
2013-10-18 15:38:00,73.0,41.0,29.74,WNW,291,2.0,-999.0,31,-99.99,,,0.01,weatherlink.com 1.10,2013-10-18 19:38:00,
2013-10-18 15:53:00,73.3,40.0,29.74,WNW,291,0.0,-999.0,30,-99.99,,,0.01,weatherlink.com 1.10,2013-10-18 19:53:00,
2013-10-18 16:08:00,72.5,39.0,29.74,NW,311,0.0,-999.0,30,-99.99,,,0.01,weatherlink.com 1.10,2013-10-18 20:08:00,
2013-10-18 16:23:00,73.0,40.0,29.74,West,263,0.0,-999.0,30,-99.99,,,0.01,weatherlink.com 1.10,2013-10-18 20:23:00,
2013-10-18 16:38:00,73.0,40.0,29.74,NNW,344,0.0,-999.0,30,-99.99,,,0.01,weatherlink.com 1.10,2013-10-18 20:38:00,
2013-10-18 16:53:00,72.0,40.0,29.74,NNW,343,1.0,-999.0,31,-99.99,,,0.01,weatherlink.com 1.10,2013-10-18 20:53:00,
2013-10-18 17:08:00,70.6,40.0,29.74,North,0,1.0,-999.0,33,-99.99,,,0.01,weatherlink.com 1.10,2013-10-18 21:08:00,
2013-10-18 17:23:00,68.6,40.0,29.75,ESE,121,0.0,-999.0,36,-99.99,,,0.01,weatherlink.com 1.10,2013-10-18 21:23:00,
2013-10-18 17:38:00,67.4,41.0,29.76,WNW,282,0.0,-999.0,38,-99.99,,,0.01,weatherlink.com 1.10,2013-10-18 21:38:00,
2013-10-18 17:53:00,66.4,41.0,29.76,WSW,257,1.0,-999.0,39,-99.99,,,0.01,weatherlink.com 1.10,2013-10-18 21:53:00,
2013-10-18 18:08:00,65.5,40.0,29.77,WSW,254,0.0,-999.0,39,-99.99,,,0.01,weatherlink.com 1.10,2013-10-18 22:08:00,
2013-10-18 18:23:00,64.8,39.0,29.77,West,275,1.0,-999.0,39,-99.99,,,0.01,weatherlink.com 1.10,2013-10-18 22:23:00,
2013-10-18 18:38:00,64.3,39.0,29.78,West,275,1.0,-999.0,40,-99.99,,,0.01,weatherlink.com 1.10,2013-10-18 22:38:00,
2013-10-18 18:53:00,63.9,41.0,29.79,NW,311,1.0,-999.0,43,-99.99,,,0.01,weatherlink.com 1.10,2013-10-18 22:53:00,
2013-10-18 19:08:00,63.4,40.0,29.79,NW,308,1.0,-999.0,42,-99.99,,,0.01,weatherlink.com 1.10,2013-10-18 23:08:00,
2013-10-18 19:23:00,63.2,40.0,29.80,West,263,1.0,-999.0,43,-99.99,,,0.01,weatherlink.com 1.10,2013-10-18 23:23:00,
2013-10-18 19:38:00,62.9,40.0,29.80,SW,227,0.0,-999.0,44,-99.99,,,0.01,weatherlink.com 1.10,2013-10-18 23:38:00,
2013-10-18 19:53:00,62.6,40.0,29.81,SSW,213,0.0,-999.0,44,-99.99,,,0.01,weatherlink.com 1.10,2013-10-18 23:53:00,
2013-10-18 20:08:00,62.3,41.0,29.82,West,274,0.0,-999.0,45,-99.99,,,0.01,weatherlink.com 1.10,2013-10-19 00:08:00,
2013-10-18 20:23:00,62.0,40.0,29.82,West,268,0.0,-999.0,45,-99.99,,,0.01,weatherlink.com 1.10,2013-10-19 00:23:00,
2013-10-18 20:38:00,61.5,40.0,29.82,WSW,254,0.0,-999.0,45,-99.99,,,0.01,weatherlink.com 1.10,2013-10-19 00:38:00,
2013-10-18 20:53:00,61.2,40.0,29.83,NNW,343,0.0,-999.0,45,-99.99,,,0.01,weatherlink.com 1.10,2013-10-19 00:53:00,
2013-10-18 21:08:00,60.9,40.0,29.83,South,169,0.0,-999.0,47,-99.99,,,0.01,weatherlink.com 1.10,2013-10-19 01:08:00,
2013-10-18 21:23:00,60.5,40.0,29.83,WSW,241,2.0,-999.0,47,-99.99,,,0.01,weatherlink.com 1.10,2013-10-19 01:23:00,
2013-10-18 21:38:00,60.2,40.0,29.84,West,270,1.0,-999.0,47,-99.99,,,0.01,weatherlink.com 1.10,2013-10-19 01:38:00,
2013-10-18 21:53:00,59.6,40.0,29.84,WSW,246,0.0,-999.0,49,-99.99,,,0.01,weatherlink.com 1.10,2013-10-19 01:53:00,
2013-10-18 22:08:00,59.0,40.0,29.85,West,260,0.0,-999.0,50,-99.99,,,0.01,weatherlink.com 1.10,2013-10-19 02:08:00,
2013-10-18 22:23:00,59.0,40.0,29.85,WSW,243,0.0,-999.0,50,-99.99,,,0.01,weatherlink.com 1.10,2013-10-19 02:23:00,
2013-10-18 22:38:00,58.4,40.0,29.86,WSW,258,0.0,-999.0,51,-99.99,,,0.01,weatherlink.com 1.10,2013-10-19 02:38:00,
2013-10-18 22:53:00,57.6,40.0,29.86,WSW,256,1.0,-999.0,53,-99.99,,,0.01,weatherlink.com 1.10,2013-10-19 02:53:00,
2013-10-18 23:08:00,57.2,40.0,29.86,WSW,239,0.0,-999.0,54,-99.99,,,0.00,weatherlink.com 1.10,2013-10-19 03:08:00,
2013-10-18 23:23:00,56.7,40.0,29.86,West,260,0.0,-999.0,54,-99.99,,,0.00,weatherlink.com 1.10,2013-10-19 03:23:00,
2013-10-18 23:38:00,56.6,40.0,29.86,West,264,0.0,-999.0,54,-99.99,,,0.00,weatherlink.com 1.10,2013-10-19 03:38:00,
2013-10-18 23:53:00,56.2,40.0,29.87,WSW,254,0.0,-999.0,55,-99.99,,,0.00,weatherlink.com 1.10,2013-10-19 03:53:00,